sat.trackr.live / text

‹ back to catalog

STARLINK-4175

NORAD 53283 · 2022-086AT

PAYLOAD ACTIVE UNKNOWN

§ Identity

Operator
Country
US
Launch date
2022-07-24
Launch site
AFETR
Launch vehicle
Mass (kg)
RCS (m²)

Purposes: comms

External: N2YO · Heavens-Above · Gunter

§ Orbital elements

Epoch: 2026-09-19T19:32:54.110688Z

Period
93.79 min
Inclination
53.1620°
Eccentricity
0.0001401
Mean motion
15.35385588 rev/d
Perigee alt
458.8 km
Apogee alt
460.7 km
Semi-major
6,837.9 km
B*
-2.9121e-5
RAAN
17.2214°
Arg perigee
100.6923°
Mean anomaly
259.4238°
Rev number
23,071

§ Raw data

STARLINK-41751 53283U 22086AT  26262.81451517 -.00001396  00000+0 -29121-4 0  99982 53283  53.1620  17.2214 0001401 100.6923 259.4238 15.35385588230711

JSON: /api/v1/satellites/53283 · /tle

For live sub-satellite position, see the globe view (requires WebGL).

§ Visibility from observer

Set your observer location to see the next 7 days of passes ≥ 10°. The values pass through the URL so the page stays shareable.

No JS? Fill the form by hand. The geolocation button needs JavaScript.